Miscellaneous Local Product
Issued by NWS Hastings, NE

Home | Current Version | Previous Version | Graphics & Text | Print | Product List | Glossary On
Versions: 1 2 3 4 5 6 7 8 9 10 11 12 13 14 15 16 17 18 19 20 21 22 23 24 25 26 27 28 29 30 31 32 33 34 35 36 37 38 39 40 41 42 43 44 45 46 47 48 49 50
000
AXUS43 KGID 241202
MISGRI

GID CWA HOURLY WEATHER ROUNDUP
NATIONAL WEATHER SERVICE HASTINGS NE
600 AM CST WED DEC 24 2014

NOTE: "FAIR" INDICATES FEW OR NO CLOUDS BELOW 12,000 FEET WITH NO
SIGNIFICANT WEATHER AND/OR OBSTRUCTIONS TO VISIBILITY.

...SOUTH CENTRAL NEBRASKA...

CITY           SKY/WX    TMP DP  RH WIND       PRES   REMARKS
GRAND ISLAND   CLOUDY    27  23  85 NW10G21   29.94F WCI  17
HASTINGS       CLOUDY    27  23  85 NW14      29.93S WCI  16
KEARNEY        MOCLDY    25  21  86 W10       29.94F WCI  15
ORD            CLOUDY    26  22  84 NW12      29.92F WCI  16
YORK           CLOUDY    28  27  93 N9        29.92F WCI  20
AURORA         CLOUDY    28  26  91 NW17      29.93S WCI  16
LEXINGTON      FAIR      22  19  86 NW12      29.95F WCI  11
HOLDREGE       FAIR      23  20  86 NW10      29.95F WCI  13
HEBRON         CLOUDY    31  26  83 N12       29.93F WCI  22

...NEBRASKA PANHANDLE...

CITY           SKY/WX    TMP DP  RH WIND       PRES   REMARKS
CHADRON        FAIR       4  -1  80 S6        29.90F WCI  -7
ALLIANCE       FAIR       4   1  88 W7        29.90F WCI  -8
SCOTTSBLUFF    FAIR      11   7  84 N7        29.91F WCI   0
SIDNEY         FAIR      17   9  70 W12       29.94F WCI   4

...WESTERN AND NORTH CENTRAL NEBRASKA...

CITY           SKY/WX    TMP DP  RH WIND       PRES   REMARKS
VALENTINE      FAIR      11   8  88 W9        29.92F WCI  -2
AINSWORTH      FAIR      15  12  90 W7        29.92F WCI   5
ONEILL         CLOUDY    25  25  99 NW15      29.92F WCI  13
BROKEN BOW     FAIR      18  14  84 CALM      29.93F
IMPERIAL       FAIR      14   9  80 W6        29.98F WCI   5
NORTH PLATTE   FAIR      16  13  88 NW8       29.97F WCI   5
MCCOOK         FAIR      19  14  81 W14       29.99F WCI   6

...EASTERN NEBRASKA...

CITY           SKY/WX    TMP DP  RH WIND       PRES   REMARKS
NORFOLK        CLOUDY    28  25  88 NW15      29.91R WCI  16
SO SIOUX CITY  CLOUDY    32  29  88 NW14      29.90R WCI  22
TEKAMAH        CLOUDY    33  30  88 NW10      29.89F WCI  25
COLUMBUS       CLOUDY    28  21  74 NW17G24   29.93R WCI  16
ALBION         CLOUDY    27  24  87 NW15      29.92S WCI  15
OMAHA EPPLEY   DRIZZLE   33  31  92 N15G24    29.89S WCI  23
MILLARD        DRIZZLE   33  31  90 NW12G22   29.90R WCI  25
LINCOLN        CLOUDY    32  28  85 NW12      29.91F WCI  23
NEBRASKA CITY  CLOUDY    33  33  99 N15       29.87S WCI  23
BEATRICE       CLOUDY    32  29  90 N16       29.91S WCI  21
FALLS CITY     CLOUDY    34  50 100 NW15G24   29.86R WCI  24

...NORTHERN KANSAS...

CITY           SKY/WX    TMP DP  RH WIND       PRES   REMARKS
GOODLAND       FAIR      15  11  83 W10       30.00S WCI   2
HILL CITY      FAIR      26  18  71 NW13G23   29.98F WCI  15
NORTON         SUNNY     23  16  74 W15       29.96S WCI  10
PHILLIPSBURG   CLEAR     28  23  80 W8        29.98S WCI  20
SMITH CENTER   CLOUDY    27  25  93 NW14      29.96  WCI  15
BELOIT         CLOUDY    32  27  80 W5        29.95S WCI  27
HAYS           FAIR      27  14  59 NW15      29.97S WCI  15
RUSSELL        FAIR      28  24  85 NW17      29.95F WCI  16
CONCORDIA      CLOUDY    31  27  85 NW8       29.93F WCI  23
SALINA         CLOUDY    33  28  81 NW14      29.96S WCI  23
TOPEKA         FLURRIES  36  33  89 NW13      29.87S WCI  27



USA.gov is the U.S. government's official web portal to all federal, state and local government web resources and services.